User: anonymous   Login
Location: Unspecified
(0.0000°N, 0.0000°E)
Time: 22:52:50
(UTC+00:00)
Language:

APRIZESAT 5 - Orbit

View from above orbital plane
View from above orbital plane
View from above satellite
View from above satellite

Ground track
Ground track

The orbit data is extracted from the following two-line orbital elements,

1 37792U 11044E   17113.90859671 +.00000312 +00000-0 +53456-4 0  9999
2 37792 098.3282 255.3873 0057611 222.8942 136.7766 14.75114986305712
Epoch (UTC): 23 April 2017 21:48:22
Eccentricity: 0.0057611
inclination: 98.3282°
perigee height: 604 km
apogee height: 685 km
right ascension of ascending node: 255.3873°
argument of perigee: 222.8942°
revolutions per day: 14.75114986
mean anomaly at epoch: 136.7766°
orbit number at epoch: 30571

The dashed part of the orbit path shows where the satellite is in the earth's shadow,  

DLR